N0KTA-2 Weather Reports


time (UTC)temp
C
wind
direction
speed
KPH
gust
KPH
rain 1hr
cm
rain 24hr
cm
rain mn
cm
humidity
%
barometer
mb
20260906195050 37 182 4.8 12.9 0.00 0.00 0.00 37 1007.0
20260906194049 37 257 1.6 4.8 0.00 0.00 0.00 37 1007.1
20260906193050 37 216 0.0 3.2 0.00 0.00 0.00 36 1007.1
20260906192049 37 239 1.6 3.2 0.00 0.00 0.00 38 1007.2
20260906191048 37 200 1.6 9.7 0.00 0.00 0.00 39 1007.4
20260906190049 37 271 1.6 4.8 0.00 0.00 0.00 38 1007.5
20260906185048 37 186 3.2 4.8 0.00 0.00 0.00 38 1007.6
20260906184049 37 74 0.0 3.2 0.00 0.00 0.00 39 1007.8
20260906183049 37 224 3.2 4.8 0.00 0.00 0.00 39 1008.1
20260906182050 37 237 0.0 3.2 0.00 0.00 0.00 37 1008.1
20260906181049 37 187 8.0 19.3 0.00 0.00 0.00 41 1008.3
20260906180048 37 209 1.6 1.6 0.00 0.00 0.00 39 1008.6
20260906175049 37 267 1.6 3.2 0.00 0.00 0.00 39 1008.9
20260906174048 36 338 0.0 3.2 0.00 0.00 0.00 40 1009.1
20260906173050 36 29 1.6 1.6 0.00 0.00 0.00 40 1009.2
20260906172049 36 208 0.0 4.8 0.00 0.00 0.00 39 1009.4
20260906171048 36 277 0.0 3.2 0.00 0.00 0.00 40 1009.7
20260906170049 36 218 0.0 0.0 0.00 0.00 0.00 40 1009.7
20260906165048 35 273 0.0 1.6 0.00 0.00 0.00 42 1009.7
20260906164050 35 320 0.0 3.2 0.00 0.00 0.00 42 1009.7
20260906163049 35 3 0.0 3.2 0.00 0.00 0.00 42 1009.8
20260906162049 35 16 1.6 4.8 0.00 0.00 0.00 45 1009.8
20260906161048 35 279 1.6 3.2 0.00 0.00 0.00 45 1009.8
20260906160049 33 202 0.0 0.0 0.00 0.00 0.00 47 1009.8
20260906155048 33 258 1.6 1.6 0.00 0.00 0.00 48 1009.8
20260906154049 33 339 0.0 1.6 0.00 0.00 0.00 49 1009.9
20260906153048 32 310 0.0 3.2 0.00 0.00 0.00 49 1009.9
20260906152049 32 232 0.0 3.2 0.00 0.00 0.00 52 1009.9
20260906151049 32 237 0.0 1.6 0.00 0.00 0.00 52 1009.9
20260906150048 31 227 0.0 1.6 0.00 0.00 0.00 55 1009.8
20260906145049 31 269 0.0 0.0 0.00 0.00 0.00 54 1009.8
20260906144048 30 208 0.0 0.0 0.00 0.00 0.00 57 1009.9
20260906143049 30 185 1.6 3.2 0.00 0.00 0.00 60 1009.8
20260906142050 29 154 0.0 1.6 0.00 0.00 0.00 63 1009.8
20260906141051 27 151 1.6 3.2 0.00 0.00 0.00 65 1010.1
20260906140050 27 144 0.0 3.2 0.00 0.00 0.00 72 1010.0
20260906135051 26 144 0.0 0.0 0.00 0.00 0.00 72 1009.8
20260906134051 26 144 0.0 0.0 0.00 0.00 0.00 71 1009.7
20260906133050 25 144 0.0 0.0 0.00 0.00 0.00 71 1009.7
20260906132051 25 144 0.0 0.0 0.00 0.00 0.00 72 1009.7
20260906131050 25 144 0.0 0.0 0.00 0.00 0.00 73 1009.5
20260906130050 24 144 0.0 0.0 0.00 0.00 0.00 75 1009.3
20260906125050 24 144 0.0 0.0 0.00 0.00 0.00 77 1009.1
20260906124049 24 144 0.0 0.0 0.00 0.00 0.00 75 1009.1
20260906123050 23 186 0.0 0.0 0.00 0.00 0.00 76 1008.9
20260906122051 23 186 0.0 0.0 0.00 0.00 0.00 76 1008.7
20260906121050 23 186 0.0 0.0 0.00 0.00 0.00 75 1008.6
20260906120051 23 67 0.0 0.0 0.00 0.00 0.00 74 1008.4
20260906115050 23 67 0.0 0.0 0.00 0.00 0.00 75 1008.4
20260906114050 24 67 0.0 0.0 0.00 0.00 0.00 74 1008.2
20260906113051 24 67 0.0 0.0 0.00 0.00 0.00 75 1008.1
20260906112049 24 67 0.0 0.0 0.00 0.00 0.00 74 1008.0
20260906111050 24 67 0.0 3.2 0.00 0.00 0.00 72 1007.9
20260906110051 24 11 0.0 1.6 0.00 0.00 0.00 72 1007.9
20260906105050 24 317 0.0 0.0 0.00 0.00 0.00 72 1007.9
20260906104051 25 302 0.0 0.0 0.00 0.00 0.00 72 1007.8
20260906103050 25 302 0.0 0.0 0.00 0.00 0.00 71 1007.8
20260906102051 25 302 0.0 0.0 0.00 0.00 0.00 71 1007.7
20260906101050 25 302 0.0 0.0 0.00 0.00 0.00 70 1007.8
20260906100050 25 178 0.0 0.0 0.00 0.00 0.00 69 1007.7
20260906095049 25 55 0.0 0.0 0.00 0.00 0.00 69 1007.7
20260906094051 25 40 0.0 3.2 0.00 0.00 0.00 69 1007.7
20260906093050 25 310 0.0 1.6 0.00 0.00 0.00 69 1007.7
20260906092051 25 75 0.0 3.2 0.00 0.00 0.00 69 1007.7
20260906091050 25 63 0.0 1.6 0.00 0.00 0.00 69 1007.6
20260906090051 25 90 0.0 1.6 0.00 0.00 0.00 68 1007.7
20260906085050 25 166 0.0 0.0 0.00 0.00 0.00 68 1007.6
20260906084051 25 197 0.0 0.0 0.00 0.00 0.00 67 1007.5
20260906083050 26 230 0.0 3.2 0.00 0.00 0.00 68 1007.5
20260906082051 26 121 0.0 1.6 0.00 0.00 0.00 67 1007.3
20260906081050 26 166 0.0 0.0 0.00 0.00 0.00 67 1007.5
20260906080049 26 202 0.0 0.0 0.00 0.00 0.00 65 1007.3
20260906075050 26 213 0.0 0.0 0.00 0.00 0.00 64 1007.2
20260906074050 26 234 0.0 0.0 0.00 0.00 0.00 64 1007.2
20260906073051 26 278 0.0 0.0 0.00 0.00 0.00 64 1007.1
20260906072049 26 155 0.0 0.0 0.00 0.00 0.00 64 1007.1
20260906071051 27 202 0.0 0.0 0.00 0.00 0.00 64 1007.1
20260906070049 27 227 0.0 0.0 0.00 0.00 0.00 63 1007.1
20260906065050 27 201 0.0 0.0 0.00 0.00 0.00 63 1007.1
20260906064050 27 221 0.0 0.0 0.00 0.00 0.00 63 1007.1
20260906063051 27 259 0.0 3.2 0.00 0.00 0.00 63 1007.1
20260906062049 27 255 0.0 0.0 0.00 0.00 0.00 63 1007.1
20260906061050 27 291 0.0 0.0 0.00 0.00 0.00 62 1007.1
20260906060050 27 224 0.0 1.6 0.00 0.00 0.00 61 1007.2
20260906055049 27 355 0.0 3.2 0.00 0.00 0.00 61 1007.4
20260906054050 28 328 0.0 0.0 0.00 0.00 0.00 59 1007.5
20260906053050 28 277 0.0 3.2 0.00 0.00 0.00 59 1007.4
20260906052051 28 10 0.0 1.6 0.00 0.00 0.00 58 1007.3
20260906051050 28 211 0.0 3.2 0.00 0.00 0.00 57 1007.1
20260906050050 28 283 0.0 3.2 0.00 0.00 0.00 57 1007.2
20260906045051 29 222 0.0 1.6 0.00 0.00 0.00 56 1007.2
20260906044050 29 199 0.0 1.6 0.00 0.00 0.00 56 1007.2
20260906043051 29 209 0.0 0.0 0.00 0.00 0.00 58 1007.1
20260906042050 29 214 0.0 0.0 0.00 0.00 0.00 56 1007.2
20260906041049 29 220 0.0 1.6 0.00 0.00 0.00 56 1007.1
20260906040049 29 232 0.0 1.6 0.00 0.00 0.00 56 1007.3
20260906035050 30 217 0.0 1.6 0.00 0.00 0.00 56 1007.3
20260906034049 30 225 0.0 1.6 0.00 0.00 0.00 56 1007.1
20260906033051 30 215 0.0 3.2 0.00 0.00 0.00 55 1007.1
20260906032050 30 229 0.0 3.2 0.00 0.00 0.00 54 1007.1
20260906031049 30 205 0.0 0.0 0.00 0.00 0.00 53 1007.0
20260906030050 30 218 0.0 1.6 0.00 0.00 0.00 53 1007.1
20260906025050 30 228 1.6 1.6 0.00 0.00 0.00 53 1006.9
20260906024051 31 211 1.6 3.2 0.00 0.00 0.00 53 1006.7
20260906023050 31 201 1.6 3.2 0.00 0.00 0.00 53 1006.7
20260906022051 31 209 0.0 0.0 0.00 0.00 0.00 53 1006.6
20260906021050 31 222 0.0 1.6 0.00 0.00 0.00 53 1006.4
20260906020051 31 208 0.0 0.0 0.00 0.00 0.00 51 1006.5
20260906015051 32 222 0.0 0.0 0.00 0.00 0.00 51 1006.3
20260906014050 32 217 0.0 0.0 0.00 0.00 0.00 49 1006.2
20260906013049 32 215 0.0 0.0 0.00 0.00 0.00 48 1005.9
20260906012050 32 209 0.0 0.0 0.00 0.00 0.00 47 1005.8
20260906011050 33 335 0.0 0.0 0.00 0.00 0.00 47 1005.7
20260906010049 33 202 3.2 3.2 0.00 0.00 0.00 46 1005.8
20260906005050 34 188 1.6 3.2 0.00 0.00 0.00 45 1005.5
20260906004049 34 192 1.6 4.8 0.00 0.00 0.00 44 1005.7
20260906003049 35 208 1.6 3.2 0.00 0.00 0.00 43 1005.7
20260906002050 35 191 1.6 3.2 0.00 0.00 0.00 41 1005.7
20260906001049 36 196 1.6 3.2 0.00 0.00 0.00 40 1005.8
20260906000050 36 217 1.6 1.6 0.00 0.00 0.00 39 1005.7
20260905235049 37 246 0.0 3.2 0.00 0.00 0.00 38 1005.6
20260905234051 37 184 3.2 8.0 0.00 0.00 0.00 37 1005.8
20260905233050 37 216 0.0 4.8 0.00 0.00 0.00 37 1005.9
20260905232050 37 212 4.8 8.0 0.00 0.00 0.00 37 1005.7
20260905231049 37 324 0.0 1.6 0.00 0.00 0.00 36 1005.6
20260905230050 37 193 8.0 8.0 0.00 0.00 0.00 36 1005.5
20260905225049 37 194 8.0 14.5 0.00 0.00 0.00 37 1005.6
20260905224049 37 202 4.8 8.0 0.00 0.00 0.00 37 1005.6
20260905223049 37 203 8.0 11.3 0.00 0.00 0.00 37 1005.5
20260905222050 37 188 3.2 9.7 0.00 0.00 0.00 37 1005.5
20260905221049 37 189 3.2 12.9 0.00 0.00 0.00 36 1005.5
20260905220050 38 270 0.0 11.3 0.00 0.00 0.00 36 1005.4
20260905215049 37 199 8.0 16.1 0.00 0.00 0.00 36 1005.4
20260905214050 38 265 0.0 1.6 0.00 0.00 0.00 35 1005.4
20260905213050 38 213 1.6 14.5 0.00 0.00 0.00 38 1005.4
20260905212051 37 271 0.0 1.6 0.00 0.00 0.00 37 1005.5
20260905211050 37 231 9.7 14.5 0.00 0.00 0.00 36 1005.8
20260905210049 37 185 4.8 9.7 0.00 0.00 0.00 38 1005.9
20260905205050 37 234 4.8 8.0 0.00 0.00 0.00 38 1006.0
20260905204049 37 188 4.8 9.7 0.00 0.00 0.00 38 1006.3
20260905203050 37 288 3.2 8.0 0.00 0.00 0.00 38 1006.4
20260905202049 37 203 0.0 8.0 0.00 0.00 0.00 38 1006.5
20260905201050 37 191 9.7 12.9 0.00 0.00 0.00 37 1006.6
20260905200049 37 180 4.8 14.5 0.00 0.00 0.00 39 1006.6